Change the Weather History Date:

Wednesday, December 7, 2011

  Actual Average Record
Temperature  
Mean Temperature 22 °F -  
Max Temperature 33 °F 23 °F 42 °F (1952)
Min Temperature 12 °F 5 °F -31 °F (2013)
Degree Days  
Heating Degree Days 42    
Moisture  
Dew Point 14 °F    
Average Humidity 71    
Maximum Humidity 93    
Minimum Humidity 44    
Precipitation  
Precipitation 0.00 in - - ()
Sea Level Pressure  
Sea Level Pressure 29.93 in    
Wind  
Wind Speed 7 mph (West)    
Max Wind Speed 20 mph    
Max Gust Speed 29 mph    
Visibility 10 miles    
Events Snow    
Averages and records for this station are not official NWS values.
T = Trace of Precipitation, MM = Missing Value Source: NWS Daily Summary

Daily Weather History Graph

Daily Weather History Graph

Search for Another Location

Airport or City:

Trip Planner

Search our weather history database for the weather conditions in past years. The results will help you decide how hot, cold, wet, or windy it might be!

Date:

Astronomy

Dec. 07, 2011 Rise Set
Actual Time 7:56 AM CST 4:31 PM CST
Civil Twilight 7:21 AM CST 5:07 PM CST
Nautical Twilight 6:42 AM CST 5:46 PM CST
Astronomical Twilight 6:05 AM CST 6:23 PM CST
Moon 2:37 PM CST (12/7) 5:08 AM CST (12/7)
Length of Visible Light 9h 46m
Length of Day
8h 34m
Waxing Gibbous, 92% of the Moon is Illuminated
Dec 7
Waxing Gibbous
Dec 10
Full
Dec 17
Last Quarter
Dec 24
New
Jan 1
First Quarter

Hourly Weather History & Observations

Time (CST) Temp. Windchill Dew Point Humidity Pressure Visibility Wind Dir Wind Speed Gust Speed Precip Events Conditions
12:15 AM 21.2 °F 7.8 °F 12.2 °F 68% 29.76 in 10.0 mi SSW 15.0 mph - N/A   Overcast
12:35 AM 21.2 °F 8.9 °F 12.2 °F 68% 29.77 in 10.0 mi SW 12.7 mph - N/A   Overcast
12:55 AM 21.2 °F 10.9 °F 12.2 °F 68% 29.78 in 10.0 mi SW 9.2 mph 16.1 mph N/A   Overcast
1:35 AM 21.2 °F - 12.2 °F 68% 29.79 in 10.0 mi Calm Calm - N/A   Overcast
2:15 AM 21.2 °F - 14.0 °F 74% 29.82 in 10.0 mi Calm Calm - N/A   Overcast
2:35 AM 23.0 °F - 15.8 °F 74% 29.83 in 10.0 mi Calm Calm - N/A   Overcast
2:55 AM 24.8 °F - 17.6 °F 74% 29.84 in 10.0 mi Calm Calm - N/A   Overcast
3:15 AM 24.8 °F - 17.6 °F 74% 29.85 in 10.0 mi Calm Calm - N/A   Overcast
3:35 AM 24.8 °F - 17.6 °F 74% 29.86 in 10.0 mi Calm Calm - N/A   Overcast
3:55 AM 24.8 °F - 17.6 °F 74% 29.86 in 10.0 mi Calm Calm - N/A   Overcast
4:15 AM 24.8 °F 12.4 °F 17.6 °F 74% 29.88 in 10.0 mi NNW 15.0 mph 19.6 mph N/A   Overcast
4:35 AM 24.8 °F 11.9 °F 17.6 °F 74% 29.89 in 10.0 mi North 16.1 mph 23.0 mph N/A   Overcast
4:55 AM 24.8 °F 16.9 °F 15.8 °F 69% 29.90 in 10.0 mi North 6.9 mph 15.0 mph N/A   Overcast
5:15 AM 21.2 °F - 15.8 °F 80% 29.91 in 10.0 mi Calm Calm - N/A   Mostly Cloudy
5:35 AM 19.4 °F - 14.0 °F 80% 29.92 in 10.0 mi Calm Calm - N/A   Scattered Clouds
5:55 AM 17.6 °F - 12.2 °F 79% 29.93 in 10.0 mi Calm Calm - N/A   Clear
6:15 AM 15.8 °F - 12.2 °F 86% 29.93 in 10.0 mi Calm Calm - N/A   Scattered Clouds
6:35 AM 15.8 °F 8.6 °F 12.2 °F 86% 29.94 in 10.0 mi NW 4.6 mph - N/A   Clear
7:16 AM 15.8 °F - 12.2 °F 86% 29.95 in 10.0 mi Calm Calm - N/A   Clear
7:35 AM 15.8 °F - 12.2 °F 86% 29.96 in 10.0 mi Calm Calm - N/A   Clear
7:55 AM 14.0 °F - 12.2 °F 93% 29.96 in 10.0 mi Calm Calm - N/A   Clear
8:15 AM 12.2 °F - 10.4 °F 92% 29.96 in 10.0 mi Calm Calm - N/A   Clear
8:35 AM 12.2 °F - 10.4 °F 92% 29.96 in 10.0 mi Calm Calm - N/A   Clear
8:55 AM 14.0 °F - 10.4 °F 86% 29.96 in 10.0 mi Calm Calm - N/A   Clear
9:15 AM 17.6 °F - 12.2 °F 79% 29.97 in 10.0 mi Calm Calm - N/A   Clear
9:35 AM 19.4 °F - 15.8 °F 86% 29.98 in 10.0 mi Calm Calm - N/A   Clear
9:55 AM 23.0 °F - 17.6 °F 80% 29.98 in 10.0 mi Calm Calm - N/A   Clear
10:15 AM 24.8 °F - 15.8 °F 69% 29.98 in 10.0 mi Calm Calm - N/A   Clear
10:35 AM 26.6 °F - 15.8 °F 64% 29.99 in 10.0 mi Calm Calm - N/A   Clear
10:55 AM 26.6 °F - 15.8 °F 64% 29.98 in 10.0 mi Calm Calm - N/A   Clear
11:15 AM 28.4 °F - 15.8 °F 59% 29.98 in 10.0 mi Calm Calm - N/A   Clear
11:35 AM 28.4 °F 19.1 °F 17.6 °F 64% 29.98 in 10.0 mi WSW 10.4 mph - N/A   Clear
11:55 AM 30.2 °F 19.8 °F 17.6 °F 60% 29.98 in 10.0 mi West 13.8 mph 17.3 mph N/A   Clear
12:15 PM 30.2 °F 20.2 °F 17.6 °F 60% 29.97 in 10.0 mi WSW 12.7 mph 16.1 mph N/A   Clear
12:35 PM 30.2 °F 19.8 °F 15.8 °F 55% 29.96 in 10.0 mi WSW 13.8 mph - N/A   Clear
12:55 PM 28.4 °F 16.2 °F 15.8 °F 59% 29.95 in 10.0 mi WSW 17.3 mph - N/A   Scattered Clouds
1:15 PM 30.2 °F 18.5 °F 15.8 °F 55% 29.95 in 10.0 mi WSW 17.3 mph 26.5 mph N/A   Overcast
1:35 PM 32.0 °F 20.5 °F 15.8 °F 51% 29.94 in 10.0 mi WSW 18.4 mph 26.5 mph N/A   Overcast
1:55 PM 30.2 °F 18.1 °F 15.8 °F 55% 29.93 in 10.0 mi WSW 18.4 mph 27.6 mph N/A   Mostly Cloudy
2:15 PM 33.8 °F 23.2 °F 15.8 °F 48% 29.92 in 10.0 mi WSW 17.3 mph 21.9 mph N/A   Scattered Clouds
2:35 PM 33.8 °F 22.8 °F 14.0 °F 44% 29.92 in 10.0 mi WSW 18.4 mph - N/A   Scattered Clouds
2:55 PM 30.2 °F 18.5 °F 12.2 °F 47% 29.92 in 10.0 mi WSW 17.3 mph 23.0 mph N/A   Mostly Cloudy
3:15 PM 30.2 °F 18.5 °F 14.0 °F 51% 29.92 in 10.0 mi West 17.3 mph 23.0 mph N/A   Overcast
3:55 PM 28.4 °F 17.0 °F 15.8 °F 59% 29.90 in 10.0 mi West 15.0 mph 20.7 mph N/A   Overcast
4:14 PM 26.6 °F 13.8 °F 21.2 °F 80% 29.92 in 1.0 mi West 17.3 mph 26.5 mph N/A Snow Light Snow
4:35 PM 24.8 °F 10.7 °F 21.2 °F 86% 29.93 in 2.0 mi WNW 19.6 mph 28.8 mph N/A Snow Light Snow
4:55 PM 23.0 °F 10.1 °F 19.4 °F 86% 29.93 in 10.0 mi WNW 15.0 mph 25.3 mph N/A   Mostly Cloudy
5:15 PM 23.0 °F 11.1 °F 19.4 °F 86% 29.93 in 10.0 mi WNW 12.7 mph 21.9 mph N/A   Mostly Cloudy
5:35 PM 21.2 °F 11.7 °F 17.6 °F 86% 29.95 in 10.0 mi WNW 8.1 mph 17.3 mph N/A   Scattered Clouds
6:15 PM 17.6 °F - 15.8 °F 93% 29.96 in 10.0 mi Calm Calm - N/A   Clear
6:35 PM 17.6 °F - 12.2 °F 79% 29.96 in 10.0 mi Calm Calm - N/A   Clear
7:15 PM 17.6 °F - 10.4 °F 73% 29.97 in 10.0 mi Calm Calm - N/A   Scattered Clouds
7:35 PM 15.8 °F 1.4 °F 6.8 °F 68% 29.97 in 10.0 mi WNW 13.8 mph 17.3 mph N/A   Clear
7:55 PM 15.8 °F 1.4 °F 1.4 °F 53% 29.98 in 10.0 mi West 13.8 mph 17.3 mph N/A   Clear
8:15 PM 15.8 °F 1.4 °F -0.4 °F 49% 29.98 in 10.0 mi WNW 13.8 mph 17.3 mph N/A   Clear
8:35 PM 15.8 °F 2.7 °F -0.4 °F 49% 29.98 in 10.0 mi WNW 11.5 mph 16.1 mph N/A   Clear
8:55 PM 14.0 °F - -0.4 °F 53% 29.98 in 10.0 mi Calm Calm - N/A   Clear
9:15 PM 12.2 °F - -2.2 °F 53% 29.99 in 10.0 mi Calm Calm - N/A   Clear
9:35 PM 10.4 °F - -0.4 °F 62% 29.99 in 10.0 mi Calm Calm - N/A   Clear
9:55 PM 8.6 °F - -2.2 °F 62% 29.99 in 10.0 mi Calm Calm - N/A   Clear
10:15 PM 10.4 °F - -2.2 °F 57% 29.98 in 10.0 mi Calm Calm - N/A   Clear
10:35 PM 10.4 °F - -2.2 °F 57% 29.98 in 10.0 mi Calm Calm - N/A   Scattered Clouds
10:55 PM 10.4 °F - -0.4 °F 62% 29.97 in 10.0 mi Calm Calm - N/A   Mostly Cloudy
11:15 PM 8.6 °F - -0.4 °F 67% 29.97 in 10.0 mi Calm Calm - N/A   Mostly Cloudy
11:35 PM 8.6 °F - 1.4 °F 73% 29.97 in 10.0 mi Calm Calm - N/A   Mostly Cloudy
11:55 PM 10.4 °F 0.8 °F 3.2 °F 73% 29.98 in 10.0 mi SW 5.8 mph - N/A   Overcast